Probability
0 0 0 0 1 3 6 6 4 3 3 4 5 4 4 5 6 6 4 3 1 0 0 0 0 0 0 0 0 0 0 0 0 0 0 0 0 0 0 0 0 0 0
0 0 0 0 1 3 5 5 4 3 4 4 4 4 4 4 4 4 4 2 1 0 0 0 0 0 0 0 0 0 0 0 0 0 0 0 0 0 0 0 0 0 0
0 0 0 0 1 3 4 3 3 4 5 6 5 5 5 4 3 3 3 1 0 0 0 0 0 0 0 0 0 0 0 0 0 0 0 0 0 0 0 0 0 0 0
0 0 0 0 1 3 4 3 3 3 5 6 6 6 5 5 3 2 1 0 0 0 0 0 0 0 0 0 0 0 0 0 0 0 0 0 0 0 0 0 0 0 0
0 0 0 1 3 5 5 4 4 4 3 4 4 4 4 4 3 1 0 0 0 0 0 0 0 0 0 0 0 0 0 0 0 0 0 0 0 0 0 0 0 0 0
0 0 0 2 3 4 4 3 4 3 2 1 3 3 3 3 2 1 0 0 0 0 0 0 0 0 0 0 0 0 0 0 0 0 0 0 0 0 0 0 0 0 0
0 0 0 1 3 3 2 1 1 1 0 1 2 3 3 3 2 1 0 0 0 0 0 0 0 0 0 0 0 0 0 0 0 0 0 0 0 0 0 0 0 0 0
0 0 0 1 1 1 1 1 1 1 0 1 2 3 3 3 2 1 0 0 0 0 0 0 0 0 0 0 0 0 0 0 0 0 0 0 0 0 0 0 0 0 0
0 0 0 0 0 0 1 2 2 1 0 1 2 3 3 3 1 0 0 0 0 0 0 0 0 0 0 0 0 0 0 0 0 0 0 0 0 0 0 0 0 0 0
0 0 0 0 0 0 1 3 2 1 0 0 1 2 3 2 1 0 0 0 0 0 0 0 0 0 0 0 0 0 0 0 0 0 0 0 0 0 0 0 0 0 0
0 0 0 0 0 0 0 1 1 0 0 0 0 1 2 2 1 0 0 0 0 1 1 1 1 1 0 0 0 0 0 0 0 0 0 0 0 0 0 0 1 1 0
0 0 0 0 0 0 0 0 0 0 0 1 0 0 1 1 0 0 0 0 0 2 2 2 2 2 0 0 0 0 0 0 0 0 0 0 0 0 0 1 2 2 1
1 0 0 0 0 0 0 0 0 0 0 0 0 0 0 0 0 0 0 0 0 1 1 1 1 1 0 0 0 0 0 0 0 0 0 0 0 1 1 2 3 3 3
2 1 1 0 0 0 0 0 0 0 0 0 0 0 0 0 0 0 0 0 0 0 0 0 0 0 0 0 0 0 0 0 0 0 0 0 1 2 3 4 4 4 3
5 4 2 1 1 0 0 0 0 0 0 0 0 0 1 1 0 0 0 0 0 0 0 0 0 0 0 0 0 0 0 0 0 0 0 0 1 3 5 6 6 5 4
8 7 5 3 2 1 1 0 0 0 0 0 0 1 2 1 0 0 0 0 0 0 0 0 0 0 0 0 0 0 0 0 0 0 0 0 0 2 5 6 6 5 5
12 11 9 6 4 3 3 1 0 0 0 0 0 1 1 1 0 0 0 0 0 0 0 0 0 0 0 0 0 0 0 0 0 0 0 0 0 1 4 6 6 5 5
13 12 10 7 5 4 3 1 1 0 0 0 0 0 1 0 0 0 0 0 0 0 0 1 1 1 1 1 1 1 1 1 1 0 0 0 0 1 3 5 6 6 6
9 8 7 6 5 3 2 2 1 1 0 0 0 0 1 0 0 0 0 0 0 0 0 1 2 2 2 2 2 2 2 2 2 1 1 1 1 1 2 3 4 6 6
8 7 6 5 4 2 2 2 1 1 1 0 0 0 0 0 0 0 0 0 0 0 0 1 1 2 2 2 2 1 1 1 2 2 2 2 2 2 3 3 3 5 6
13 11 8 5 3 2 2 1 0 0 0 0 0 0 0 0 0 0 0 0 0 0 0 0 0 1 1 1 1 0 0 0 1 1 2 2 3 3 4 5 5 4 5
20 15 10 6 3 1 1 0 0 0 0 0 0 0 0 0 0 0 0 0 0 0 0 0 0 0 0 0 0 0 0 0 0 0 1 1 1 2 4 5 5 4 4
25 21 15 10 7 3 1 0 0 0 0 0 0 0 0 0 0 0 0 0 0 0 0 0 0 0 0 0 0 0 0 0 0 0 0 0 0 1 2 2 2 2 2
28 26 21 18 15 10 5 2 0 0 0 0 0 0 0 0 0 0 0 0 1 2 1 1 0 0 0 0 0 0 1 0 0 0 0 0 0 0 0 1 1 1 2
28 28 27 25 22 17 12 8 4 1 0 0 0 0 0 0 0 0 1 2 3 4 3 2 1 1 1 1 0 1 1 1 0 0 0 0 0 0 0 0 1 1 2
27 29 30 29 26 21 17 14 8 2 0 0 0 0 0 0 0 1 2 3 6 7 5 3 2 2 2 2 1 2 2 1 1 1 0 0 0 0 0 0 0 1 1
Wind_Speed
3 4 13 15 16 17 17 18 18 18 18 18 19 19 19 19 18 17 17 16 15 15 14 13 13 13 13 13 13 13 13 13 13 13 14 14 13 13 14 13 13 9 14
6 7 14 15 16 17 17 18 18 18 18 18 17 17 17 17 17 16 16 15 14 14 13 13 12 12 12 11 11 11 11 11 11 12 12 12 12 12 12 13 12 8 13
8 8 12 15 16 17 17 17 17 17 17 17 17 16 16 16 15 15 14 14 13 13 12 12 11 11 10 10 10 10 10 10 10 11 11 5 7 11 12 13 13 13 13
9 7 11 16 17 17 17 17 17 17 17 17 16 15 14 14 14 14 13 13 12 12 11 11 10 10 9 9 8 8 8 9 9 9 5 4 4 10 12 12 12 12 12
9 7 11 17 17 17 17 16 16 16 16 15 15 14 14 13 13 13 12 12 11 10 10 10 9 9 8 8 7 6 6 6 6 6 3 3 3 9 11 11 12 11 12
9 7 11 17 17 17 16 16 16 16 15 15 14 14 13 12 12 12 11 11 10 9 9 9 8 8 7 6 6 5 4 4 5 3 3 3 3 9 11 11 11 11 11
9 7 10 16 16 16 16 15 15 15 15 14 13 13 12 11 11 11 10 9 9 9 8 8 7 6 6 5 4 3 2 3 3 3 3 3 4 9 10 10 11 11 10
11 8 9 16 16 15 15 15 14 14 14 13 13 12 12 11 10 10 10 9 8 8 7 7 7 6 4 4 3 1 1 2 4 4 3 3 7 9 10 10 10 10 10
10 8 6 7 10 14 14 14 14 13 13 12 12 12 11 11 10 10 9 9 8 7 7 6 6 5 4 4 3 2 1 2 2 2 4 3 7 9 10 11 11 10 10
9 8 6 5 5 6 8 12 13 13 12 12 11 11 11 10 10 9 8 8 8 7 7 6 5 5 4 4 3 2 1 1 1 2 2 4 9 11 11 11 11 10 10
9 7 7 6 5 5 5 9 10 11 11 10 8 10 8 4 4 5 7 8 8 8 7 6 6 5 4 4 4 4 2 1 1 2 2 7 11 12 11 11 11 11 10
11 9 7 7 6 6 6 5 3 4 4 4 3 4 3 3 3 5 7 9 8 8 7 7 7 6 4 2 3 3 1 2 2 2 4 10 12 12 12 11 11 11 11
13 11 9 8 7 6 4 4 2 2 2 3 4 4 3 2 2 2 2 3 4 5 3 4 3 2 2 2 2 2 3 2 2 3 5 11 12 13 13 12 12 12 12
12 12 10 10 8 6 5 4 3 3 3 3 4 5 3 2 2 3 2 3 2 2 2 2 2 3 3 4 4 4 3 3 3 3 5 12 12 13 14 13 13 13 13
12 11 11 10 9 7 6 4 5 4 4 4 4 4 5 3 3 3 2 3 3 2 3 3 3 3 4 4 3 4 4 4 4 4 3 11 12 13 14 14 14 14 14
12 11 10 10 9 7 6 5 4 4 4 4 4 5 5 4 4 4 3 3 3 3 3 3 4 3 3 3 3 3 4 4 4 5 4 7 12 13 14 14 14 14 14
12 11 10 10 9 8 7 6 5 4 4 4 4 4 5 4 4 4 3 3 3 3 3 2 2 2 2 2 3 3 3 4 4 5 5 4 5 11 14 14 14 15 15
12 11 11 11 9 8 7 5 3 4 4 4 4 4 5 5 5 4 3 3 3 2 2 2 2 1 2 2 2 3 3 3 4 5 4 4 4 5 9 14 15 15 15
13 12 11 9 10 8 7 5 4 3 4 4 4 4 4 5 5 4 3 3 3 2 2 2 2 2 2 2 3 3 3 3 4 4 5 6 6 6 5 9 14 15 16
12 12 11 9 9 7 5 3 2 2 3 3 3 4 5 4 5 4 3 3 3 2 2 2 2 1 2 2 2 2 2 3 2 3 4 4 5 6 6 6 6 8 14
11 11 10 10 9 7 4 4 3 3 3 2 3 5 5 5 5 4 3 3 2 3 3 3 2 1 1 1 0 2 3 2 2 2 2 2 4 5 5 5 4 4 4
13 12 10 10 10 8 6 4 3 3 3 3 3 4 5 5 5 4 4 3 3 2 2 3 2 1 1 1 2 0 2 4 3 2 1 1 3 2 3 5 4 4 4
13 14 12 10 10 9 7 4 3 2 1 1 2 3 4 5 5 4 4 3 3 3 3 3 3 3 2 1 2 3 2 2 2 3 2 1 1 1 2 2 3 4 4
15 13 11 11 10 9 8 6 6 5 5 5 4 3 4 5 5 5 4 4 4 3 3 3 3 2 3 2 1 2 3 3 2 2 3 2 2 1 1 2 2 2 3
14 13 11 11 10 9 9 8 7 6 5 3 3 4 4 4 5 5 4 4 4 3 4 3 3 3 3 3 2 1 1 1 2 2 2 3 2 1 1 2 1 1 2
11 11 11 11 11 10 10 9 8 7 6 5 5 5 4 3 3 4 5 4 4 3 4 4 4 4 3 3 2 2 2 2 2 2 3 2 2 2 2 1 1 2 2
Wind_Direction
136 137 130 125 122 118 114 112 110 108 108 108 109 110 111 112 113 115 115 116 115 113 110 108 106 105 103 102 103 105 108 110 111 112 113 113 112 112 114 113 113 112 115
141 138 131 126 123 120 118 114 112 111 112 112 111 112 113 114 115 116 116 116 116 114 112 110 108 108 106 105 105 107 109 112 112 114 113 114 115 115 117 119 119 122 120
133 134 131 126 124 123 120 118 116 115 114 114 114 115 115 116 116 117 118 119 118 116 115 115 113 112 112 111 110 110 112 113 113 113 110 102 111 118 120 123 125 124 124
134 133 132 129 127 127 124 122 120 119 118 117 117 118 118 118 119 121 122 121 121 122 122 122 122 120 118 118 116 115 116 115 115 116 109 111 121 125 125 126 127 128 129
129 131 136 133 130 129 127 126 126 124 123 122 122 122 123 125 125 125 126 125 125 126 127 128 128 126 124 125 121 117 117 114 114 118 117 119 122 133 133 134 133 132 134
127 129 138 135 133 132 131 130 131 130 128 128 128 129 131 133 132 132 129 129 129 130 132 133 133 132 132 132 127 119 110 105 109 119 125 133 138 146 144 142 139 139 139
132 133 139 138 137 136 135 135 135 135 134 134 135 136 137 138 137 137 135 134 135 137 140 141 141 140 142 145 140 129 119 122 121 128 136 142 149 152 152 148 146 145 145
136 136 141 143 141 139 139 140 141 142 141 141 142 142 143 144 144 144 141 141 143 144 146 147 150 154 162 165 168 156 151 145 134 137 147 158 158 157 157 154 153 153 153
137 135 137 144 143 142 142 143 146 148 147 147 147 147 148 149 150 151 151 151 153 155 159 162 165 170 183 191 201 214 188 147 125 151 156 159 162 162 163 162 160 159 161
138 141 141 139 137 142 145 148 150 153 153 153 153 153 154 156 158 160 162 164 167 169 173 178 185 191 204 215 222 221 192 160 158 169 161 175 175 175 172 170 170 169 169
147 153 152 148 147 146 149 157 156 157 160 161 161 161 158 153 156 165 176 179 181 185 190 196 202 213 225 234 237 229 216 186 173 190 185 188 185 183 181 179 178 178 178
163 167 166 163 160 159 163 150 152 159 160 161 161 162 157 157 176 182 189 193 194 197 203 208 217 224 234 244 247 236 210 200 188 206 202 193 190 189 188 186 183 184 185
169 170 171 172 170 168 161 154 157 156 159 169 175 174 169 168 181 187 184 198 200 205 210 216 228 229 229 233 235 222 214 212 202 212 208 197 194 194 193 192 190 191 193
169 175 173 174 171 173 165 166 166 168 175 181 188 183 173 174 182 184 187 188 192 198 200 213 224 228 233 237 227 219 211 210 204 210 210 203 201 199 199 198 198 199 200
169 174 175 174 171 170 166 175 173 179 186 188 187 188 179 178 188 189 192 196 199 198 202 211 221 225 234 240 232 214 211 209 205 206 210 207 206 206 206 205 206 206 206
168 167 168 169 169 165 168 175 174 178 181 182 188 192 186 182 182 183 188 194 202 200 201 202 210 216 228 235 242 226 210 207 208 208 212 215 214 211 211 212 212 214 214
168 165 168 169 167 168 172 177 176 181 178 183 190 192 190 184 181 179 184 196 205 199 195 198 213 209 223 229 243 243 223 217 210 209 210 214 219 219 217 216 215 217 218
167 165 171 172 170 174 175 180 179 180 180 188 188 188 193 190 183 178 187 202 201 187 183 188 198 207 239 239 245 252 241 230 221 213 208 212 214 222 226 224 221 220 221
169 168 172 169 172 178 178 177 178 177 182 187 184 184 191 191 186 182 193 204 192 179 188 203 192 191 223 245 247 250 250 240 233 224 212 209 210 217 223 228 226 224 224
170 170 170 170 175 174 171 168 168 173 188 183 184 188 188 187 185 183 192 201 184 170 187 196 195 202 213 229 260 272 264 254 245 232 226 218 217 219 221 223 225 231 229
169 169 169 171 176 171 168 172 175 183 189 187 191 190 188 187 182 175 187 188 183 183 198 196 186 205 242 197 22 323 315 291 261 260 248 231 228 225 215 213 213 216 227
175 175 173 175 177 177 180 178 176 170 183 189 195 190 194 193 186 180 176 182 186 187 193 190 174 170 240 174 152 95 336 334 318 282 265 240 249 235 222 218 209 208 214
181 180 180 179 179 180 177 166 161 136 142 188 204 200 205 197 192 185 179 177 182 182 197 204 184 171 200 237 180 158 165 242 303 318 292 271 264 245 239 212 203 209 209
186 182 180 179 179 182 177 174 173 179 190 201 197 198 204 200 195 191 184 182 183 182 192 208 191 182 173 212 244 214 193 178 183 300 319 307 291 260 240 206 185 192 197
182 181 181 179 182 182 182 182 182 192 197 192 186 192 203 209 205 198 192 190 192 194 199 204 196 193 183 189 204 218 227 212 187 186 272 304 321 288 243 212 195 194 200
181 181 180 180 186 185 185 185 188 194 193 187 191 195 201 206 212 210 201 199 201 200 204 207 205 203 200 196 201 195 189 196 204 192 226 258 271 283 273 233 203 201 204